When you browse on this site, cookies collect data to enhance your experience and personalize the content and advertising you see.
Visit our Privacy Policy to learn more. By continuing to use the site, you agree to this use of cookies and data.

Meteo pe oră la Tivrov

Astăzi, 8 Iulie, Miercuri

Timp Temperatura Precipitaţii Vânt Presiune Umiditate
00:00 +13°C° 0.4 mm 6 m/s 734 mmHg 82%
01:00 +13°C° 0.4 mm 6 m/s 734 mmHg 87%
02:00 +12°C° 0 mm 5 m/s 734 mmHg 88%
03:00 +12°C° 0 mm 5 m/s 735 mmHg 90%
04:00 +12°C° 0 mm 5 m/s 735 mmHg 91%
05:00 +10°C° 0 mm 5 m/s 735 mmHg 93%
06:00 +12°C° 0 mm 5 m/s 735 mmHg 88%
07:00 +14°C° 0 mm 6 m/s 736 mmHg 83%
08:00 +15°C° 0 mm 6 m/s 736 mmHg 77%
09:00 +16°C° 0 mm 6 m/s 736 mmHg 72%
10:00 +17°C° 0 mm 6 m/s 736 mmHg 66%
11:00 +19°C° 0 mm 6 m/s 737 mmHg 61%
12:00 +19°C° 0 mm 6 m/s 737 mmHg 60%
13:00 +20°C° 0 mm 6 m/s 737 mmHg 59%
14:00 +20°C° 0 mm 5 m/s 737 mmHg 57%
15:00 +20°C° 0 mm 5 m/s 737 mmHg 59%
16:00 +20°C° 0 mm 5 m/s 737 mmHg 61%
17:00 +19°C° 0 mm 5 m/s 737 mmHg 63%
18:00 +18°C° 0 mm 4 m/s 737 mmHg 68%
19:00 +17°C° 0 mm 3 m/s 737 mmHg 74%
20:00 +16°C° 0 mm 2 m/s 737 mmHg 80%
21:00 +15°C° 0 mm 2 m/s 737 mmHg 82%
22:00 +14°C° 0 mm 2 m/s 738 mmHg 84%
23:00 +13°C° 0 mm 2 m/s 738 mmHg 86%

Mâine, 9 Iulie, Joi

Timp Temperatura Precipitaţii Vânt Presiune Umiditate
00:00 +13°C° 0 mm 2 m/s 738 mmHg 87%
01:00 +13°C° 0 mm 2 m/s 738 mmHg 87%
02:00 +12°C° 0 mm 2 m/s 738 mmHg 87%
03:00 +12°C° 0 mm 2 m/s 738 mmHg 87%
04:00 +13°C° 0 mm 2 m/s 738 mmHg 86%
05:00 +13°C° 0 mm 2 m/s 738 mmHg 86%
06:00 +14°C° 0 mm 2 m/s 738 mmHg 81%
07:00 +16°C° 0 mm 2 m/s 738 mmHg 75%
08:00 +18°C° 0 mm 3 m/s 739 mmHg 70%
09:00 +18°C° 0 mm 3 m/s 739 mmHg 73%
10:00 +17°C° 0 mm 3 m/s 739 mmHg 77%
11:00 +16°C° 0 mm 3 m/s 739 mmHg 80%
12:00 +17°C° 0 mm 3 m/s 739 mmHg 78%
13:00 +18°C° 0 mm 3 m/s 739 mmHg 76%
14:00 +19°C° 0 mm 3 m/s 739 mmHg 74%
15:00 +19°C° 0 mm 3 m/s 739 mmHg 72%
16:00 +20°C° 0 mm 3 m/s 739 mmHg 71%
17:00 +21°C° 0 mm 3 m/s 739 mmHg 70%
18:00 +19°C° 0 mm 2 m/s 739 mmHg 75%
19:00 +18°C° 0 mm 2 m/s 739 mmHg 81%
20:00 +18°C° 0 mm 1 m/s 739 mmHg 86%
21:00 +16°C° 0 mm 1 m/s 739 mmHg 87%
22:00 +15°C° 0 mm 1 m/s 740 mmHg 89%
23:00 +14°C° 0 mm 1 m/s 740 mmHg 90%

Poimâine, 10 Iulie, Vineri

Timp Temperatura Precipitaţii Vânt Presiune Umiditate
00:00 +13°C° 0 mm 0 m/s 740 mmHg 90%
01:00 +13°C° 0 mm 0 m/s 740 mmHg 90%
02:00 +13°C° 0 mm 0 m/s 740 mmHg 91%
03:00 +13°C° 0 mm 0 m/s 740 mmHg 91%
04:00 +14°C° 0 mm 1 m/s 740 mmHg 91%
05:00 +14°C° 0 mm 1 m/s 740 mmHg 92%
06:00 +16°C° 0 mm 1 m/s 740 mmHg 86%
07:00 +18°C° 0 mm 2 m/s 740 mmHg 81%
08:00 +19°C° 0 mm 2 m/s 740 mmHg 76%
09:00 +21°C° 0 mm 2 m/s 740 mmHg 71%
10:00 +23°C° 0 mm 2 m/s 740 mmHg 66%
11:00 +25°C° 0 mm 3 m/s 741 mmHg 61%
12:00 +25°C° 0 mm 3 m/s 740 mmHg 60%
13:00 +26°C° 0 mm 3 m/s 740 mmHg 58%
14:00 +27°C° 0 mm 3 m/s 740 mmHg 56%
15:00 +27°C° 0 mm 3 m/s 740 mmHg 57%
16:00 +27°C° 0 mm 2 m/s 739 mmHg 58%
17:00 +27°C° 0 mm 2 m/s 739 mmHg 58%
18:00 +25°C° 0 mm 2 m/s 739 mmHg 65%
19:00 +24°C° 0 mm 2 m/s 739 mmHg 71%
20:00 +21°C° 0 mm 3 m/s 739 mmHg 78%
21:00 +20°C° 0 mm 3 m/s 739 mmHg 80%
22:00 +19°C° 0 mm 3 m/s 739 mmHg 82%
23:00 +19°C° 0 mm 3 m/s 739 mmHg 85%

11 Iulie, Sâmbătă

Timp Temperatura Precipitaţii Vânt Presiune Umiditate
00:00 +18°C° 0 mm 3 m/s 739 mmHg 85%
01:00 +18°C° 0 mm 3 m/s 739 mmHg 86%
02:00 +18°C° 0 mm 3 m/s 739 mmHg 87%
03:00 +18°C° 0 mm 3 m/s 739 mmHg 87%
04:00 +17°C° 0 mm 3 m/s 739 mmHg 87%
05:00 +17°C° 0 mm 3 m/s 739 mmHg 87%
06:00 +19°C° 0 mm 3 m/s 739 mmHg 82%
07:00 +21°C° 0 mm 3 m/s 739 mmHg 77%
08:00 +23°C° 0 mm 4 m/s 739 mmHg 71%
09:00 +25°C° 0 mm 4 m/s 739 mmHg 67%
10:00 +26°C° 0 mm 5 m/s 739 mmHg 63%
11:00 +28°C° 0 mm 5 m/s 739 mmHg 59%
12:00 +28°C° 0 mm 5 m/s 739 mmHg 58%
13:00 +28°C° 0 mm 5 m/s 739 mmHg 57%
14:00 +29°C° 0 mm 5 m/s 739 mmHg 55%
15:00 +29°C° 0 mm 5 m/s 738 mmHg 57%
16:00 +28°C° 0 mm 5 m/s 738 mmHg 60%
17:00 +28°C° 0 mm 5 m/s 738 mmHg 62%
18:00 +26°C° 0 mm 4 m/s 737 mmHg 67%
19:00 +24°C° 0 mm 3 m/s 737 mmHg 73%
20:00 +22°C° 0 mm 3 m/s 737 mmHg 78%
21:00 +21°C° 0 mm 3 m/s 737 mmHg 79%
22:00 +20°C° 0 mm 3 m/s 737 mmHg 80%
23:00 +19°C° 0 mm 3 m/s 737 mmHg 80%

12 Iulie, Duminică

Timp Temperatura Precipitaţii Vânt Presiune Umiditate
00:00 +19°C° 0 mm 3 m/s 737 mmHg 77%
01:00 +19°C° 0 mm 3 m/s 736 mmHg 75%
02:00 +18°C° 0 mm 3 m/s 736 mmHg 72%
03:00 +18°C° 0 mm 3 m/s 736 mmHg 73%
04:00 +17°C° 0 mm 3 m/s 735 mmHg 74%
05:00 +17°C° 0 mm 3 m/s 735 mmHg 75%
06:00 +19°C° 0 mm 3 m/s 735 mmHg 72%
07:00 +21°C° 0 mm 3 m/s 736 mmHg 70%
08:00 +22°C° 0 mm 3 m/s 736 mmHg 67%
09:00 +23°C° 0.1 mm 4 m/s 736 mmHg 67%
10:00 +25°C° 0.1 mm 4 m/s 736 mmHg 66%
11:00 +26°C° 0.1 mm 5 m/s 737 mmHg 66%
12:00 +24°C° 0.6 mm 6 m/s 737 mmHg 71%
13:00 +22°C° 0.6 mm 7 m/s 737 mmHg 76%
14:00 +20°C° 0.6 mm 8 m/s 737 mmHg 81%
15:00 +18°C° 0 mm 8 m/s 737 mmHg 80%
16:00 +17°C° 0 mm 8 m/s 737 mmHg 79%
17:00 +16°C° 0 mm 8 m/s 737 mmHg 78%
18:00 +15°C° 0 mm 7 m/s 738 mmHg 80%
19:00 +14°C° 0 mm 7 m/s 738 mmHg 81%
20:00 +13°C° 0 mm 6 m/s 738 mmHg 83%
21:00 +13°C° 0 mm 5 m/s 738 mmHg 83%
22:00 +12°C° 0 mm 5 m/s 739 mmHg 83%
23:00 +12°C° 0 mm 5 m/s 739 mmHg 84%

13 Iulie, Luni

Timp Temperatura Precipitaţii Vânt Presiune Umiditate
00:00 +11°C° 0 mm 4 m/s 739 mmHg 86%
01:00 +11°C° 0 mm 4 m/s 739 mmHg 89%
02:00 +10°C° 0 mm 4 m/s 739 mmHg 91%
03:00 +10°C° 0 mm 4 m/s 739 mmHg 92%
04:00 +10°C° 0 mm 4 m/s 738 mmHg 93%
05:00 +10°C° 0 mm 4 m/s 738 mmHg 94%
06:00 +12°C° 0 mm 4 m/s 738 mmHg 87%
07:00 +14°C° 0 mm 5 m/s 738 mmHg 80%
08:00 +15°C° 0 mm 5 m/s 739 mmHg 73%
09:00 +16°C° 0 mm 5 m/s 739 mmHg 68%
10:00 +17°C° 0 mm 6 m/s 739 mmHg 63%
11:00 +20°C° 0 mm 6 m/s 739 mmHg 58%
12:00 +20°C° 0 mm 6 m/s 739 mmHg 57%
13:00 +20°C° 0 mm 6 m/s 738 mmHg 55%
14:00 +21°C° 0 mm 6 m/s 738 mmHg 53%
15:00 +20°C° 0.1 mm 5 m/s 738 mmHg 56%
16:00 +20°C° 0.1 mm 5 m/s 738 mmHg 59%
17:00 +19°C° 0.1 mm 5 m/s 738 mmHg 62%
18:00 +18°C° 0 mm 4 m/s 738 mmHg 68%
19:00 +17°C° 0 mm 4 m/s 738 mmHg 74%
20:00 +14°C° 0 mm 3 m/s 738 mmHg 80%
21:00 +13°C° 0 mm 3 m/s 738 mmHg 83%
22:00 +12°C° 0 mm 3 m/s 738 mmHg 85%
23:00 +12°C° 0 mm 3 m/s 739 mmHg 88%
Arată mai mult